Flag for Austria Weather past 2 weeks in Klagenfurt, Carinthia, Austria

Now
68 °F

Sprinkles. Broken clouds.


Feels Like: 68 °F
Forecast: 48 / 60 °F
Wind: 8 mph from East

Location: Klagenfurt-Flughafen

Current Time: Aug 20, 2014 at 4:57:21 PM

Latest Report: Aug 20, 2014 at 4:20 PM


Visibility: N/A

Pressure: 29.95 "Hg

Humidity: 69%

Dew point: 57 °F

Location of KlagenfurtLocation

Historic Weather in Klagenfurt — Graph

°F

Klagenfurt temperature yesterday

Maximum temperature yesterday: 66 °F (at 11:50 AM)
Minimum temperature yesterday: 52 °F (at 5:20 AM)
Average temperature yesterday: 60 °F

Past Weeks' High & Low Weather Summary

 TemperatureHumidityPressure
High86 °F (Aug 9, 4:50 PM)100% (Aug 6, 12:20 AM)30.15 "Hg (Aug 6, 12:20 AM)
Low48 °F (Aug 17, 6:20 AM)37% (Aug 7, 5:50 PM)29.68 "Hg (Aug 13, 4:50 PM)
Average64 °F79%29.98 "Hg
* Reported Aug 5 3:20 PM — Aug 20 3:20 PM, Klagenfurt, Weather by CustomWeather, © 2014

Note: Actual official high and low records may vary slightly from our data, if they occured in-between our weather recording intervals... More about our weather records

Advertising

Klagenfurt weather history for previous 24 hours

 ConditionsComfort  
Time TempWeatherWind HumidityBarometerVisibility
3:20 PM
Aug 20
70 °FPartly sunny.7 mph64%29.95 "HgN/A
2:50 PM70 °FPartly sunny.8 mph64%29.95 "HgN/A
2:20 PM72 °FBroken clouds.8 mph61%29.95 "HgN/A
1:50 PM70 °FBroken clouds.8 mph69%29.98 "HgN/A
1:20 PM70 °FBroken clouds.6 mph64%29.98 "HgN/A
12:50 PM70 °FPartly sunny.5 mph64%29.98 "HgN/A
12:20 PM70 °FScattered clouds.5 mph64%29.98 "HgN/A
11:50 AM68 °FScattered clouds.5 mph69%30.01 "HgN/A
11:20 AM68 °FScattered clouds.1 mph69%30.01 "HgN/A
10:50 AM66 °FPartly sunny.2 mph73%30.01 "HgN/A
10:20 AM64 °FScattered clouds.2 mph73%30.01 "HgN/A
9:50 AM63 °FScattered clouds.1 mph77%30.01 "HgN/A
9:20 AM61 °FPartly sunny.2 mph77%30.01 "HgN/A
8:50 AM63 °FPartly sunny.2 mph77%30.01 "HgN/A
8:20 AM59 °FScattered clouds.1 mph82%30.01 "HgN/A
7:50 AM59 °FBroken clouds.1 mph88%30.01 "HgN/A
7:20 AM57 °FBroken clouds.1 mph88%30.01 "HgN/A
6:50 AM57 °FPassing clouds.1 mph88%30.01 "HgN/A
6:20 AM57 °FPartly cloudy.1 mph88%30.01 "HgN/A
5:50 AM57 °FPartly cloudy.1 mph88%30.01 "HgN/A
5:20 AM57 °FPartly cloudy.1 mph88%29.98 "HgN/A
4:50 AM57 °FPassing clouds.1 mph88%29.98 "HgN/A
4:20 AM57 °FPassing clouds.1 mph88%29.98 "HgN/A
3:50 AM55 °FPassing clouds.3 mph94%29.98 "HgN/A
3:20 AM55 °FPartly cloudy.1 mph94%29.98 "HgN/A
2:50 AM55 °FPassing clouds.3 mph94%29.98 "HgN/A
2:20 AM55 °FPassing clouds.5 mph94%29.98 "HgN/A
1:50 AM55 °FPassing clouds.3 mph100%29.98 "HgN/A
1:20 AM55 °FPassing clouds.5 mph100%29.98 "HgN/A
12:50 AM55 °FPassing clouds.6 mph100%29.98 "HgN/A
12:20 AM57 °FPassing clouds.5 mph94%29.98 "HgN/A
11:50 PM
Aug 19
57 °FPassing clouds.2 mph94%29.98 "HgN/A
11:20 PM57 °FPassing clouds.3 mph94%29.98 "HgN/A
10:50 PM59 °FPassing clouds.2 mph94%29.98 "HgN/A
10:20 PM59 °FPassing clouds.3 mph94%29.98 "HgN/A
9:50 PM59 °FPassing clouds.2 mph94%29.98 "HgN/A
9:20 PM61 °FPassing clouds.No wind94%29.98 "HgN/A
8:50 PM61 °FBroken clouds.1 mph94%29.95 "HgN/A
8:20 PM63 °FBroken clouds.2 mph88%29.95 "HgN/A
7:50 PM63 °FBroken clouds.1 mph88%29.95 "HgN/A
7:20 PM64 °FBroken clouds.1 mph83%29.95 "HgN/A
6:50 PM64 °FPartly sunny.1 mph83%29.95 "HgN/A
6:20 PM64 °FPartly sunny.1 mph78%29.95 "HgN/A
5:50 PM64 °FPartly sunny.2 mph83%29.95 "HgN/A
5:20 PM64 °FPartly sunny.2 mph78%29.95 "HgN/A
4:50 PM64 °FBroken clouds.1 mph78%29.95 "HgN/A
4:20 PM64 °FBroken clouds.3 mph83%29.95 "HgN/A
Weather by CustomWeather, © 2014

See weather overviewHow to use our weather pages